Location: *
(37.5724°S, 58.0067°E)
Time: 11:41:17
(UTC+00:00)

Cosmos 371 Rocket - Pass Details

Date: 26 September 2020
Orbit: 683 x 699 km, 74.0° (Epoch: 30 October)

Event Time Altitude Azimuth Distance (km) Brightness Sun altitude
Rises 15:10:13 0° 186° (S) 3,106 6.9 -13.0°
Reaches altitude 10° 15:12:58 10° 171° (S) 2,178 5.9 -13.5°
Maximum altitude 15:16:56 24° 117° (ESE) 1,435 4.5 -14.3°
Enters shadow 15:18:14 21° 94° (E) 1,526 4.5 -14.5°
